Location: Newark
(21.1200°N, 73.4000°E)
Time: 00:03:45
(UTC+00:00)

Vanguard 1 Rocket - Visible Passes

Search period start: 20 January 2020 00:00
Search period end: 30 January 2020 00:00
Orbit: 650 x 4226 km, 34.3° (Epoch: 18 January)

Date Brightness Start Highest point End Pass type
(mag) Time Alt. Az. Time Alt. Az. Time Alt. Az.
20 Jan 11.4 13:48:35 10° WNW 14:12:22 48° SW 14:32:34 10° SSE visible
20 Jan 11.8 16:37:38 10° WSW 16:42:31 11° SW 16:47:01 10° SW visible
21 Jan 11.2 12:33:29 10° WNW 12:57:25 66° SW 13:20:53 10° SE visible
21 Jan 11.6 15:10:44 10° W 15:28:42 24° SW 15:43:36 10° S visible
22 Jan 11.6 13:52:12 10° WNW 14:14:29 39° SW 14:34:12 10° SSE visible
23 Jan 11.4 12:36:38 10° WNW 12:59:37 56° SW 13:22:54 10° SSE visible
23 Jan 11.8 15:16:51 10° W 15:31:08 18° SW 15:43:39 10° SSW visible
24 Jan 11.7 13:56:19 10° W 14:16:43 31° SW 14:35:27 10° S visible
25 Jan 11.7 12:40:01 10° WNW 13:01:52 47° SW 13:24:37 10° SSE visible
25 Jan 12.0 15:25:51 10° WSW 15:33:56 12° SW 15:41:30 10° SSW visible
26 Jan 11.9 14:01:13 10° W 14:19:09 24° SW 14:36:09 10° S visible
27 Jan 9.7 00:34:23 10° SSE 00:36:23 13° SE 00:38:35 10° ESE visible
27 Jan 11.8 12:43:47 10° W 13:04:14 38° SW 13:26:00 10° SSE visible
28 Jan 12.0 14:07:26 10° WSW 14:21:55 18° SW 14:35:59 10° S visible
29 Jan 9.2 00:35:46 10° S 00:39:11 22° SE 00:43:12 10° E visible
29 Jan 12.0 12:48:04 10° W 13:06:46 30° SW 13:26:58 10° SSE visible
